Location: Battersea Observatory
(44.4318°N, 76.3841°W)
Time: 12:55:01
(UTC-05:00)

Tiangong - Pass Details

Date: 12 December 2021
Orbit: 383 x 386 km, 41.5° (Epoch: 19 January)

Event Time Altitude Azimuth Distance (km) Brightness Sun altitude
Rises 17:34:40 0° 245° (WSW) 2,274 7.1 -11.8°
Reaches altitude 10° 17:36:49 10° 237° (WSW) 1,418 5.3 -12.1°
Maximum altitude 17:39:49 38° 168° (SSE) 614 2.1 -12.6°
Enters shadow 17:41:45 18° 108° (ESE) 1,025 2.7 -13.0°
